Location: Ferques
(50.8300°N, 1.7599°E)
Time: 12:58:30
(UTC+00:00)

NOSS 2-1 (D) - Pass Details

Date: 19 May 2025
Orbit: 378 x 1698 km, 63.3° (Epoch: 11 June)

Event Time Altitude Azimuth Distance (km) Brightness Sun altitude
Exits shadow 22:36:28 38° 105° (ESE) 644 3.4 -17.4°
Drops below altitude 10° 22:38:53 10° 57° (ENE) 1,419 5.6 -17.5°
Sets 22:40:52 0° 49° (NE) 2,258 6.8 -17.6°
